Regional Weather Roundup
Issued by NWS

Home | Current Version | Previous Version | Text Only | Print | Product List | Glossary Off
Versions: 1 2 3 4 5 6 7 8 9 10 11 12 13 14 15 16 17 18 19 20 21 22 23 24 25 26 27 28 29 30 31 32 33 34 35 36 37 38 39 40 41 42 43 44 45 46 47 48 49 50

720
ASUS45 KCYS 110010
RWRWY

WYOMING REGIONAL WEATHER ROUNDUP
NATIONAL WEATHER SERVICE CHEYENNE WY
500 PM MST SUN DEC 10 2017

NOTE:  "FAIR" INDICATES FEW OR NO CLOUDS BELOW 12,000 FEET
WITH NO SIGNIFICANT WEATHER AND/OR OBSTRUCTIONS TO VISIBILITY.

WYZ001-110100-
YELLOWSTONE NATIONAL PARK

CITY           SKY/WX    TMP DP  RH WIND       PRES   REMARKS
LK YELLOWSTONE   N/A     19  16  88 W3        30.55S
6HR MIN TEMP:  19; 6HR MAX TEMP:  28;

W YELLOWSTONE  NOT AVBL

$$
WYZ002>013-054>058-071-098>099-110100-
NORTHERN WYOMING

CITY           SKY/WX    TMP DP  RH WIND       PRES   REMARKS
JACKSON        FAIR      26  15  63 CALM      30.57S
CODY           FAIR      45   8  22 CALM      30.34F
GREYBULL       FAIR      36  15  42 CALM      30.34S
6HR MIN TEMP:  26; 6HR MAX TEMP:  43;

WORLAND        FAIR      32  21  64 S7        30.33F WCI  26
6HR MIN TEMP:  30; 6HR MAX TEMP:  47;

SHERIDAN       FAIR      45  13  27 NW7       30.24R
6HR MIN TEMP:  43; 6HR MAX TEMP:  63;

BUFFALO        FAIR      48   5  17 W3        30.28S
6HR MIN TEMP:  45; 6HR MAX TEMP:  59;

GILLETTE       FAIR      43  19  38 W15       30.24S
6HR MIN TEMP:  39; 6HR MAX TEMP:  53;

HULETT         FAIR      43  18  36 SW10      30.22R
NEWCASTLE      FAIR      39  12  33 N9        30.24S WCI  33

$$
WYZ014>020-022>026-101>103-110100-
CENTRAL WYOMING

CITY           SKY/WX    TMP DP  RH WIND       PRES   REMARKS
BIG PINEY      FAIR      41  -7  13 N14       30.47S
6HR MIN TEMP:  36; 6HR MAX TEMP:  52;

PINEDALE       FAIR      37   0  20 NW13      30.48R WCI  29
DUBOIS         FAIR      41  -8  12 W20       30.46R
LANDER         FAIR      32  18  56 N7        30.38R WCI  26
6HR MIN TEMP:  27; 6HR MAX TEMP:  38;

RIVERTON       FAIR      28  17  63 NE6       30.40R WCI  22
6HR MIN TEMP:  25; 6HR MAX TEMP:  37;

CASPER         FAIR      37  17  44 SW16      30.36R WCI  28
6HR MIN TEMP:  36; 6HR MAX TEMP:  41;

DOUGLAS        FAIR      38  19  46 N7        30.31R WCI  33
6HR MIN TEMP:  38; 6HR MAX TEMP:  50;


$$
WYZ021-027>030-104>119-110100-
SOUTHERN WYOMING

CITY           SKY/WX    TMP DP  RH WIND       PRES   REMARKS
EVANSTON       FAIR      38  11  32 SW6       30.53S WCI  33
6HR MIN TEMP:  34; 6HR MAX TEMP:  46;

FORT BRIDGER   FAIR      40   6  24 W15       30.54S WCI  31
ROCK SPRINGS   FAIR      41   3  20 SW13      30.47S
6HR MIN TEMP:  37; 6HR MAX TEMP:  46;

DIXON          FAIR      22  14  70 NE3       30.53S
RAWLINS        FAIR      35  12  38 SW12      30.46R WCI  27
6HR MIN TEMP:  35; 6HR MAX TEMP:  44;

SARATOGA       FAIR      28  18  64 S7        30.47S WCI  21
LARAMIE        FAIR      31  11  43 E6        30.39F WCI  25
6HR MIN TEMP:  31; 6HR MAX TEMP:  48;

CHEYENNE       FAIR      43   2  18 W9        30.32F
6HR MIN TEMP:  43; 6HR MAX TEMP:  56;

TORRINGTON     FAIR      48   8  19 W12       30.26S
6HR MIN TEMP:  48; 6HR MAX TEMP:  60;

PINE BLUFFS    FAIR      37   1  22 MISG      30.31F

$$




USA.gov is the U.S. government's official web portal to all federal, state and local government web resources and services.